Nantucket, MA

2:31 AM EDT on August 23, 2017 (GMT -0400)
Nantucket Memorial

Weather History for KACK - November, 2012

Change the Weather History Date:

Sunday, November 4, 2012

  Actual Average Record
Temperature  
Mean Temperature 45 °F -  
Max Temperature 51 °F 58 °F 68 °F (1977)
Min Temperature 39 °F 45 °F 32 °F (1964)
Degree Days  
Heating Degree Days 20    
Moisture  
Dew Point 37 °F    
Average Humidity 70    
Maximum Humidity 89    
Minimum Humidity 60    
Precipitation  
Precipitation 0.00 in - - ()
Sea Level Pressure  
Sea Level Pressure 29.86 in    
Wind  
Wind Speed 10 mph (NW)    
Max Wind Speed 14 mph    
Max Gust Speed 21 mph    
Visibility 10 miles    
Events Rain    
Averages and records for this station are not official NWS values.
T = Trace of Precipitation, MM = Missing Value Source: NWS Daily Summary

Daily Weather History Graph

Daily Weather History Graph

Search for Another Location

Airport or City:

Trip Planner

Search our weather history database for the weather conditions in past years. The results will help you decide how hot, cold, wet, or windy it might be!

Date:

Astronomy

Nov. 04, 2012 Rise Set
Actual Time 6:15 AM EST 4:31 PM EST
Civil Twilight 5:46 AM EST 5:00 PM EST
Nautical Twilight 5:13 AM EST 5:33 PM EST
Astronomical Twilight 4:41 AM EST 6:05 PM EST
Moon 9:05 PM EST (11/4) 10:57 AM EST (11/4)
Length of Visible Light 11h 13m
Length of Day
10h 15m
Waning Gibbous, 72% of the Moon is Illuminated
Nov 4
Waning Gibbous
Nov 6
Last Quarter
Nov 13
New
Nov 20
First Quarter
Nov 28
Full

Hourly Weather History & Observations

Time (EST) Temp. Windchill Dew Point Humidity Pressure Visibility Wind Dir Wind Speed Gust Speed Precip Events Conditions
12:53 AM 45.0 °F 38.5 °F 33.1 °F 63% 29.79 in 10.0 mi NW 13.8 mph - N/A   Clear
1:53 AM 45.0 °F 38.9 °F 32.0 °F 60% 29.80 in 10.0 mi NW 12.7 mph - N/A   Partly Cloudy
1:53 AM 44.1 °F 38.1 °F 32.0 °F 63% 29.81 in 10.0 mi NW 11.5 mph 20.7 mph N/A   Mostly Cloudy
2:53 AM 43.0 °F 36.8 °F 33.1 °F 68% 29.81 in 10.0 mi NW 11.5 mph - N/A   Partly Cloudy
3:53 AM 44.1 °F 38.1 °F 33.1 °F 65% 29.82 in 10.0 mi WNW 11.5 mph - N/A   Mostly Cloudy
4:53 AM 43.0 °F 36.0 °F 34.0 °F 71% 29.83 in 10.0 mi NW 13.8 mph - N/A   Partly Cloudy
5:53 AM 42.1 °F 36.6 °F 34.0 °F 73% 29.84 in 10.0 mi NW 9.2 mph - N/A   Clear
6:53 AM 43.0 °F 38.2 °F 35.1 °F 74% 29.86 in 10.0 mi NW 8.1 mph - N/A   Clear
7:53 AM 45.0 °F 39.7 °F 36.0 °F 71% 29.87 in 10.0 mi WNW 10.4 mph - N/A   Clear
8:53 AM 46.9 °F - 37.0 °F 68% 29.88 in 10.0 mi WNW 9.2 mph - N/A   Clear
9:53 AM 48.0 °F - 37.0 °F 66% 29.88 in 10.0 mi NW 10.4 mph - N/A   Clear
10:53 AM 48.0 °F - 37.0 °F 66% 29.87 in 10.0 mi NNW 8.1 mph - N/A   Clear
11:53 AM 50.0 °F - 37.9 °F 63% 29.87 in 10.0 mi Variable 3.5 mph - N/A   Clear
12:53 PM 50.0 °F - 37.9 °F 63% 29.85 in 10.0 mi North 10.4 mph - N/A   Clear
1:53 PM 51.1 °F - 37.9 °F 61% 29.86 in 10.0 mi WSW 10.4 mph - N/A   Partly Cloudy
2:53 PM 50.0 °F - 37.9 °F 63% 29.86 in 10.0 mi WSW 6.9 mph - N/A   Clear
3:53 PM 48.9 °F - 39.0 °F 69% 29.87 in 10.0 mi West 5.8 mph - N/A   Clear
4:53 PM 46.0 °F - 37.0 °F 71% 29.88 in 10.0 mi Calm Calm - N/A   Clear
5:53 PM 39.9 °F - 37.0 °F 89% 29.89 in 10.0 mi Calm Calm - N/A   Clear
6:53 PM 44.1 °F - 39.0 °F 82% 29.89 in 10.0 mi Calm Calm - N/A   Overcast
7:53 PM 48.0 °F - 39.9 °F 74% 29.89 in 10.0 mi WNW 3.5 mph - N/A   Overcast
8:46 PM 48.2 °F - 41.0 °F 76% 29.90 in 10.0 mi NNE 3.5 mph - N/A   Overcast
8:53 PM 48.0 °F - 41.0 °F 77% 29.90 in 10.0 mi Calm Calm - N/A   Overcast
9:27 PM 48.2 °F - 39.2 °F 71% 29.90 in 10.0 mi North 11.5 mph - N/A   Overcast
9:53 PM 46.9 °F - 39.0 °F 74% 29.91 in 10.0 mi North 11.5 mph - 0.00 in Rain Light Rain
10:53 PM 46.0 °F 41.4 °F 37.9 °F 73% 29.90 in 10.0 mi North 9.2 mph - 0.00 in   Overcast